Weather in Afanasyevo

Russia / Lipetsk Oblast     52°34′13″N   38°11′28″E
temp.,
°C
wind,
m/s
gust,
m/s
humid.,
%
clouds,
%
prec.,
mm/h
press.,
hPa
HPBL,
m
13 august, sat
sat1300:00+19ne412650 0.2 1021220
03:00+17ne410790 0.9 1021174
06:00+17e310804 0.6 1021216
09:00+22ene476766 2.0 1021318
12:00+29ese464277 0.1 10201117
15:00+24ne1260100 0.1 101950
18:00+25sse235794 0.0 1018120
21:00+24e3353100 0.0 101849
14 august, sun
sun1400:00+23ene4959100 0.0 1018182
03:00+21ene3671100 0.0 1018119
06:00+21ene3868100 0.0 1018182
09:00+25e4555100 0.0 1018559
12:00+26ene5550100 0.0 1018946
15:00+27ene564480 0.0 10171103
18:00+26ene574798 0.0 1017863
21:00+21ne495934 0.0 1017178
15 august, mon
mon1500:00+20ene39585 0.1 1017168
03:00+19ene365592 0.1 1017110
06:00+19e38565 0.0 1017155
09:00+25ese584326 0.0 1017500
12:00+30e783045 0.0 10171751
15:00+31e772820 0.0 10162236
18:00+29e583235 0.0 1016693
21:00+24ene5144284 0.0 1017327
16 august, tue
tue1600:00+23e7164111 0.0 1018554
03:00+20e5124836 0.0 1018332
06:00+19e51254100 0.0 1019312
09:00+23e61040100 0.0 1019671
12:00+27e7829100 0.0 10181484
15:00+29e6827100 0.0 10172003
18:00+28e4734100 0.0 1016326
21:00+23ene3943100 0.0 1016161
17 august, wed
wed1700:00+24e51239100 0.0 1016332
03:00+23ene51041100 0.1 1016264
06:00+22ene5114195 0.0 1016279
09:00+24e583699 0.1 1016473
12:00+28e793082 0.0 1015944
15:00+28e9123190 0.0 1014848
18:00+28ene812328 0.0 1013756
21:00+26ene81734100 0.0 1013623